Probability
0 0 0 0 0 0 0 0 0 0 0 0 3 3 3 3 0 3 3 3 13 13 13 10 16 16 16 19 13 19 10 10 10 13 16 19 19 19 16 13 19 19 19 23
0 0 0 0 0 0 0 0 0 0 0 0 3 3 3 6 6 3 0 10 10 13 13 10 6 13 19 19 19 19 10 10 10 10 13 16 19 16 16 13 10 13 23 23
0 0 0 0 0 0 0 0 0 0 0 0 0 0 3 6 6 6 10 13 10 16 16 16 10 13 23 16 19 19 13 16 13 13 10 19 19 16 13 10 16 13 19 23
0 0 0 0 0 0 0 0 0 0 0 0 0 0 0 0 10 13 13 10 6 16 16 19 13 16 19 26 23 19 16 16 13 13 10 16 16 16 16 16 19 19 19 19
0 0 0 0 0 0 0 0 0 0 0 0 0 0 0 0 3 10 13 13 13 16 19 19 19 19 19 26 29 26 16 16 19 19 13 10 13 16 16 19 19 16 19 16
0 0 0 0 0 0 0 0 0 0 0 0 0 0 0 0 0 3 13 16 13 16 19 16 19 16 13 26 26 23 13 13 23 29 19 13 16 16 16 19 19 23 16 10
0 0 0 0 0 0 0 0 0 0 0 0 0 0 0 3 0 10 13 13 13 16 13 13 16 19 19 19 26 23 16 13 26 23 26 26 26 13 13 16 16 19 13 13
0 0 0 0 0 0 0 0 0 0 0 0 0 0 0 3 3 10 16 16 10 13 13 10 13 29 23 23 23 26 23 16 29 32 29 23 23 23 19 16 10 6 13 13
0 0 0 0 0 0 0 0 0 0 0 0 0 0 3 3 6 16 16 16 13 16 19 19 16 23 29 23 23 26 23 26 32 29 32 26 23 26 29 19 19 13 19 23
0 0 0 0 0 0 0 0 0 0 0 0 0 0 3 3 13 16 16 16 16 13 13 19 16 19 16 26 19 23 23 29 29 29 23 32 26 32 29 29 19 23 16 16
0 0 0 0 0 0 0 0 0 0 0 0 0 0 0 6 6 10 16 13 13 13 13 16 16 16 19 23 26 26 26 29 23 26 23 23 23 23 29 29 26 23 16 16
0 0 0 0 0 0 0 0 0 0 0 0 0 0 0 3 6 10 10 10 10 19 19 19 19 19 23 26 26 26 26 29 23 26 26 26 23 23 26 23 26 23 16 19
0 0 0 0 0 0 0 0 0 0 0 0 0 3 0 3 3 6 16 16 13 23 23 26 26 26 29 26 26 26 26 29 23 23 23 23 19 23 23 19 19 19 19 19
0 0 0 0 0 0 0 3 3 3 0 0 0 3 0 0 0 6 19 19 16 19 26 26 26 29 29 26 32 29 26 26 23 23 23 23 23 26 23 23 23 19 16 10
0 0 0 0 0 0 3 3 3 3 0 0 0 3 3 0 3 6 10 10 16 19 23 26 26 29 26 26 26 29 26 26 26 26 23 23 26 26 23 19 19 19 16 16
0 0 0 0 0 3 3 0 3 0 0 0 0 0 0 3 3 6 6 10 10 19 23 23 19 26 26 26 23 29 29 26 26 23 29 26 23 23 19 19 19 19 16 16
0 0 0 0 0 0 3 0 0 0 0 0 0 0 3 3 6 6 6 10 13 13 26 23 19 19 23 23 23 26 29 29 29 26 23 23 23 23 19 19 16 13 13 13
0 0 0 0 0 0 0 0 0 0 0 0 3 3 3 3 6 6 10 16 19 13 23 19 19 26 23 26 19 26 26 29 29 29 23 19 23 19 16 16 16 16 13 13
0 0 0 0 0 0 0 0 0 0 0 0 0 3 6 6 6 10 13 13 16 23 26 23 23 19 19 23 23 26 29 32 32 32 26 23 19 19 19 16 16 16 16 13
0 0 0 0 0 0 0 0 0 0 0 0 0 3 3 0 3 3 3 10 16 19 19 16 16 13 13 23 23 23 23 26 29 26 26 23 23 19 19 16 16 16 19 16
0 0 0 0 0 0 0 0 0 0 0 0 0 3 0 0 0 0 3 13 19 16 16 16 13 13 10 13 13 19 19 23 23 23 23 23 23 19 19 16 19 19 16 16
0 0 0 0 0 0 0 3 0 0 0 0 0 0 0 0 0 3 10 13 13 13 10 10 13 13 10 13 13 16 19 16 19 19 19 23 19 23 26 19 19 13 13 13
0 0 0 0 0 0 0 0 0 0 0 0 0 0 3 3 6 10 6 10 10 16 13 10 10 10 10 10 13 13 16 16 16 16 16 16 16 23 23 19 16 16 13 13
0 0 0 0 0 0 0 0 0 0 0 3 0 0 3 6 10 13 13 6 10 10 16 10 13 10 10 10 16 16 13 16 19 16 13 16 19 19 23 23 19 16 16 16
0 0 0 0 0 0 0 0 0 0 0 0 6 3 3 6 10 13 13 10 13 13 16 6 6 6 13 6 10 13 13 13 16 13 16 16 19 19 19 16 16 19 19 19
0 0 0 0 0 0 0 0 3 3 3 3 3 3 3 6 10 10 13 13 10 13 13 6 6 6 3 13 13 10 10 10 13 13 13 16 16 16 19 16 13 10 10 10
Height
5911 5913 5913 5914 5914 5916 5916 5916 5916 5916 5916 5916 5915 5915 5915 5913 5913 5913 5912 5911 5910 5908 5907 5906 5905 5903 5902 5901 5899 5898 5897 5895 5893 5892 5890 5889 5887 5886 5885 5883 5882 5881 5881 5880
5910 5911 5912 5912 5913 5914 5914 5915 5915 5915 5915 5915 5914 5914 5914 5912 5912 5912 5912 5910 5909 5907 5906 5906 5905 5903 5901 5900 5898 5897 5895 5894 5892 5891 5889 5887 5886 5885 5883 5882 5881 5880 5879 5879
5908 5910 5910 5910 5911 5912 5913 5913 5913 5914 5913 5913 5913 5913 5913 5912 5911 5911 5910 5909 5908 5907 5905 5904 5903 5902 5900 5898 5897 5895 5894 5893 5891 5890 5888 5886 5885 5883 5882 5880 5879 5878 5878 5877
5906 5907 5908 5909 5910 5910 5910 5911 5912 5912 5911 5911 5911 5911 5911 5910 5909 5908 5908 5907 5906 5905 5904 5903 5901 5900 5898 5897 5895 5894 5893 5891 5889 5888 5886 5885 5883 5881 5880 5878 5877 5876 5876 5875
5904 5905 5906 5906 5908 5908 5909 5910 5910 5910 5909 5909 5909 5908 5909 5907 5907 5907 5906 5906 5905 5904 5903 5901 5899 5898 5896 5895 5894 5892 5891 5889 5888 5886 5885 5883 5881 5880 5878 5876 5875 5874 5873 5873
5901 5902 5903 5904 5905 5906 5907 5908 5908 5907 5907 5907 5907 5906 5906 5905 5905 5905 5904 5904 5903 5901 5900 5898 5897 5896 5894 5893 5892 5890 5888 5887 5886 5884 5883 5881 5879 5877 5876 5874 5873 5871 5870 5870
5898 5899 5900 5901 5902 5903 5904 5905 5905 5904 5904 5904 5903 5901 5902 5902 5902 5902 5901 5901 5899 5898 5897 5895 5894 5893 5892 5891 5889 5888 5886 5885 5884 5882 5880 5878 5877 5875 5873 5872 5870 5869 5868 5867
5894 5896 5897 5898 5899 5900 5900 5901 5902 5901 5900 5900 5899 5898 5899 5898 5898 5898 5898 5897 5896 5895 5894 5892 5891 5890 5889 5888 5887 5885 5884 5882 5880 5879 5877 5876 5874 5872 5871 5869 5867 5866 5865 5863
5890 5892 5894 5895 5895 5896 5896 5897 5897 5897 5896 5896 5894 5894 5894 5894 5894 5894 5893 5893 5892 5891 5890 5889 5888 5887 5886 5885 5883 5882 5880 5879 5877 5875 5874 5872 5871 5869 5867 5866 5864 5863 5861 5860
5886 5888 5890 5890 5891 5892 5893 5893 5893 5892 5891 5890 5891 5890 5891 5890 5890 5890 5889 5888 5888 5887 5886 5885 5884 5883 5882 5881 5880 5878 5877 5875 5873 5872 5870 5869 5867 5865 5864 5862 5861 5859 5858 5856
5881 5883 5885 5886 5887 5888 5889 5889 5888 5888 5888 5887 5886 5889 5887 5886 5886 5885 5885 5884 5883 5882 5882 5881 5880 5879 5878 5877 5875 5874 5872 5871 5870 5868 5866 5864 5863 5862 5860 5858 5857 5855 5854 5852
5876 5878 5879 5881 5883 5883 5884 5884 5884 5885 5884 5883 5882 5885 5882 5882 5881 5880 5880 5880 5879 5878 5878 5877 5876 5875 5873 5872 5871 5870 5868 5866 5865 5863 5861 5860 5859 5857 5855 5854 5852 5851 5849 5848
5871 5872 5873 5875 5878 5878 5878 5878 5878 5879 5879 5877 5877 5879 5877 5877 5876 5875 5875 5876 5875 5874 5873 5872 5871 5870 5869 5868 5866 5865 5863 5862 5860 5858 5857 5855 5854 5852 5851 5849 5847 5846 5844 5843
5866 5866 5868 5869 5870 5871 5872 5872 5873 5873 5873 5872 5872 5872 5872 5872 5871 5870 5869 5870 5870 5869 5868 5868 5867 5866 5865 5863 5861 5860 5859 5857 5855 5854 5852 5851 5849 5847 5846 5844 5842 5840 5839 5837
5859 5860 5861 5863 5864 5865 5865 5866 5867 5867 5867 5867 5867 5867 5867 5866 5866 5865 5864 5865 5865 5864 5864 5863 5862 5861 5860 5858 5856 5855 5853 5852 5850 5848 5847 5845 5844 5842 5840 5839 5837 5835 5833 5832
5852 5853 5855 5856 5858 5858 5859 5860 5860 5860 5861 5860 5861 5861 5861 5860 5860 5860 5859 5860 5860 5859 5859 5858 5857 5856 5854 5853 5851 5849 5848 5846 5845 5843 5841 5840 5838 5836 5835 5833 5831 5829 5827 5826
5845 5846 5847 5849 5850 5851 5852 5853 5853 5853 5853 5853 5854 5856 5855 5854 5855 5855 5854 5853 5854 5854 5853 5852 5851 5850 5849 5848 5846 5844 5842 5841 5839 5837 5836 5834 5832 5831 5829 5827 5826 5824 5822 5820
5837 5838 5839 5840 5843 5843 5847 5846 5846 5846 5846 5846 5846 5847 5848 5848 5848 5848 5847 5847 5847 5847 5846 5845 5844 5843 5842 5841 5839 5837 5835 5834 5832 5831 5830 5828 5826 5825 5823 5821 5819 5818 5816 5814
5829 5830 5831 5832 5833 5834 5837 5839 5838 5839 5839 5839 5839 5839 5840 5841 5842 5842 5841 5841 5840 5840 5839 5838 5837 5836 5835 5833 5831 5830 5829 5827 5826 5824 5823 5821 5819 5818 5816 5814 5812 5811 5809 5807
5821 5822 5823 5823 5824 5826 5830 5830 5830 5831 5830 5831 5832 5832 5832 5834 5834 5835 5835 5834 5833 5832 5832 5831 5830 5829 5827 5825 5824 5823 5822 5820 5819 5817 5815 5814 5812 5810 5809 5807 5805 5803 5802 5800
5812 5813 5814 5815 5815 5817 5820 5822 5823 5824 5824 5824 5824 5824 5825 5825 5826 5827 5827 5826 5826 5825 5824 5823 5822 5821 5820 5818 5816 5815 5814 5813 5812 5810 5808 5806 5804 5803 5801 5800 5798 5796 5794 5793
5803 5805 5806 5807 5808 5811 5812 5813 5815 5815 5815 5816 5816 5816 5816 5817 5818 5818 5819 5818 5818 5817 5816 5815 5813 5812 5811 5809 5808 5807 5806 5805 5804 5802 5801 5799 5797 5795 5794 5792 5791 5789 5787 5785
5794 5796 5797 5799 5801 5802 5803 5804 5805 5806 5807 5808 5809 5809 5808 5809 5810 5810 5810 5809 5809 5808 5808 5806 5805 5804 5802 5801 5800 5799 5798 5797 5796 5794 5792 5791 5789 5787 5786 5784 5783 5781 5779 5777
5785 5787 5788 5789 5791 5792 5794 5794 5796 5797 5798 5799 5800 5801 5800 5801 5801 5801 5801 5800 5800 5799 5799 5798 5797 5795 5794 5793 5792 5790 5790 5789 5787 5786 5784 5783 5781 5779 5778 5776 5774 5773 5771 5769
5776 5777 5778 5780 5781 5783 5784 5785 5787 5788 5789 5790 5791 5791 5792 5792 5791 5791 5791 5791 5790 5790 5789 5789 5788 5787 5786 5785 5784 5782 5782 5781 5779 5778 5776 5774 5773 5771 5770 5768 5766 5764 5762 5760
5767 5769 5770 5771 5773 5774 5775 5776 5777 5778 5779 5781 5782 5783 5783 5782 5782 5782 5781 5781 5781 5780 5780 5779 5779 5778 5777 5776 5775 5774 5773 5772 5771 5770 5768 5767 5765 5763 5761 5759 5758 5755 5754 5752
Wind_Speed
10 9 8 7 6 5 4 3 3 3 3 4 5 6 7 7 6 7 8 7 7 7 8 8 8 8 8 8 8 9 8 8 8 8 8 8 8 7 7 7 5 5 4 4
10 10 8 8 8 6 5 4 5 6 6 6 6 7 7 7 6 6 9 8 6 6 7 7 7 8 8 8 9 9 9 9 9 9 9 9 8 8 8 7 6 5 6 6
10 10 10 8 8 7 6 6 6 8 7 9 9 7 8 9 9 7 7 7 8 8 8 7 7 8 8 8 9 9 9 9 10 10 9 9 9 9 8 8 7 7 6 7
10 11 11 9 8 8 7 7 7 8 10 11 11 10 9 11 9 8 7 7 8 8 9 8 8 8 8 8 9 9 9 10 10 10 10 10 10 9 9 9 8 8 7 7
11 12 12 10 9 9 8 7 8 9 11 12 11 12 11 12 11 10 10 9 10 9 9 9 8 9 8 9 10 10 10 10 10 10 10 11 10 10 9 9 9 9 8 8
13 13 12 11 10 10 10 10 10 10 12 12 12 13 13 13 12 11 10 11 11 11 9 9 9 9 10 11 11 12 11 11 11 12 11 11 11 10 10 10 10 10 9 9
14 14 13 13 12 12 12 12 12 12 13 13 13 14 13 13 12 12 12 12 13 12 11 10 10 10 11 11 11 12 12 12 12 13 12 12 11 11 11 11 11 11 11 11
14 14 14 14 13 13 13 14 15 15 15 15 16 16 14 14 14 15 14 14 13 12 12 12 13 12 11 12 12 12 12 13 13 12 12 12 12 12 12 12 12 12 12 12
14 13 15 16 16 16 16 15 14 17 18 18 18 18 16 15 16 16 15 14 14 14 15 14 14 13 13 13 12 13 13 13 14 14 13 13 13 13 13 13 13 13 13 13
16 15 15 16 17 17 16 16 16 18 19 20 18 17 17 17 16 16 16 16 15 15 16 15 15 14 14 14 14 14 14 14 14 14 14 13 13 13 14 14 14 14 14 14
17 17 16 17 17 17 16 17 18 19 20 21 21 21 19 19 17 16 17 17 17 16 17 18 16 16 16 16 15 15 15 14 15 15 15 15 15 15 15 15 15 15 15 15
19 20 20 19 19 18 18 19 19 20 21 22 22 21 20 20 19 18 17 17 17 17 18 19 18 17 17 16 16 15 16 16 16 16 16 16 16 16 16 16 16 16 16 16
20 21 21 21 21 20 21 22 22 21 22 22 23 22 22 20 19 18 17 16 16 17 19 20 20 19 18 17 17 17 17 17 17 18 18 17 17 17 17 17 18 18 17 17
23 23 23 23 23 22 23 22 23 24 25 23 23 23 22 22 21 20 17 16 17 17 19 19 20 20 19 18 19 19 19 19 19 19 19 19 18 18 18 19 19 19 18 18
26 26 25 24 24 24 24 24 24 25 26 26 23 22 22 22 21 19 17 18 18 18 19 19 20 20 20 20 20 21 21 20 20 21 20 20 20 19 20 20 20 19 19 19
30 29 28 27 27 26 26 26 27 27 27 27 25 24 23 22 22 20 20 19 19 19 19 19 20 21 21 22 22 22 21 21 21 21 21 21 20 20 20 21 20 20 20 20
31 32 31 30 29 29 28 27 28 27 27 27 26 25 25 22 22 21 21 21 21 21 21 22 23 22 22 23 23 22 22 21 21 21 21 21 21 21 22 22 22 21 22 22
31 32 33 33 32 32 30 28 28 29 28 28 27 27 26 25 24 22 22 22 22 23 23 23 23 23 24 23 23 23 22 22 22 22 22 22 22 23 23 23 23 23 23 23
32 33 33 34 34 33 31 29 29 30 30 29 28 27 27 26 25 24 24 24 25 25 26 25 25 25 25 25 24 23 23 22 22 22 23 23 23 24 24 24 24 24 24 24
32 33 34 34 34 34 31 30 29 30 31 30 30 29 27 28 28 27 27 26 26 26 26 26 26 26 26 26 25 24 24 24 24 23 23 24 25 25 25 25 24 24 24 25
32 32 34 34 34 34 32 30 29 30 30 29 29 29 29 29 28 28 28 28 28 28 27 28 28 28 27 27 26 26 25 24 24 24 24 25 25 26 26 25 25 25 25 25
31 32 32 33 34 33 31 30 30 30 29 29 29 29 31 31 29 29 29 30 29 28 28 28 29 28 28 27 26 26 26 25 25 25 25 25 25 25 26 26 26 26 26 26
33 33 33 33 33 33 33 32 31 30 30 30 31 31 32 32 32 30 30 30 30 30 29 29 29 27 26 26 25 25 25 26 26 26 26 25 25 26 26 26 26 26 27 27
34 34 34 34 34 33 32 32 31 30 30 30 31 31 32 33 33 33 32 30 29 29 30 29 29 30 29 28 27 26 26 25 26 26 26 26 26 26 26 26 26 27 27 27
32 33 34 34 32 31 31 31 31 31 30 30 30 31 32 33 32 32 31 30 28 29 29 30 30 30 30 29 27 27 27 26 26 27 27 26 26 27 27 28 28 28 28 28
30 32 32 32 31 31 31 31 32 32 31 31 31 31 32 32 31 32 32 31 30 29 30 30 30 30 30 30 29 27 27 27 28 28 28 28 27 28 28 28 28 28 28 28
Wind_Direction
203 202 207 219 208 213 232 255 294 312 322 324 332 330 332 339 359 7 7 15 19 16 13 13 9 7 9 6 1 357 355 355 356 355 351 346 343 340 339 334 327 324 318 318
214 213 215 224 210 216 242 260 281 290 283 294 310 313 323 332 341 355 354 356 2 7 7 3 0 358 0 354 346 343 342 344 348 348 346 342 338 333 329 329 325 317 314 310
221 217 220 214 210 223 232 266 273 277 274 282 293 301 306 319 322 330 331 339 348 351 351 347 345 345 345 342 339 334 334 338 337 338 338 337 332 328 326 322 317 310 309 311
222 220 224 225 228 242 242 267 271 275 278 280 288 292 295 303 309 318 320 318 328 337 345 340 337 339 337 336 334 331 329 331 332 334 335 333 329 325 319 316 316 307 300 302
225 226 229 231 240 248 251 252 271 281 273 274 281 289 295 294 305 310 307 308 315 323 329 330 326 329 330 328 327 325 322 323 324 325 327 330 327 323 318 314 312 308 300 295
228 228 233 240 242 248 256 251 257 269 270 272 274 276 285 294 301 306 303 307 308 312 316 316 319 321 322 322 323 323 324 325 318 318 320 321 322 320 316 313 308 303 297 292
230 228 231 239 242 242 253 253 260 265 269 272 274 276 278 285 291 300 301 305 307 303 307 309 310 313 315 319 320 322 321 321 318 316 317 318 319 317 311 309 307 303 298 293
229 230 235 240 248 245 252 256 263 276 280 281 276 277 281 284 286 293 299 301 308 303 302 305 305 307 313 312 312 314 315 316 316 314 317 316 315 314 309 305 302 300 297 293
240 238 236 239 243 249 252 255 264 273 278 280 276 276 283 287 290 292 296 298 301 301 303 304 305 307 310 311 310 310 310 311 311 313 314 314 313 312 311 305 299 298 297 294
248 246 243 243 240 243 252 259 262 267 274 276 275 276 282 283 289 294 297 299 300 302 303 303 307 305 306 305 305 307 309 310 310 313 313 311 311 310 310 308 304 300 296 293
251 252 249 246 243 245 248 253 260 265 272 278 277 278 281 281 284 287 293 297 301 302 306 307 307 308 309 309 306 305 308 307 306 307 308 307 305 305 304 304 302 301 297 292
252 254 253 248 246 248 249 252 257 262 268 273 275 278 281 284 285 285 292 299 299 300 301 301 301 304 305 307 305 304 306 304 302 302 304 304 303 302 300 300 299 296 295 292
251 253 254 248 244 244 249 251 253 258 265 270 273 276 278 281 283 281 283 291 296 301 300 298 298 301 302 303 303 303 303 302 302 302 302 302 302 301 300 299 298 296 292 290
252 252 253 252 249 248 249 250 251 254 258 264 269 273 276 278 278 275 277 287 294 295 296 295 294 297 298 299 301 300 300 300 299 299 298 299 299 299 298 298 297 295 291 288
248 250 252 251 249 252 252 252 254 256 259 264 269 270 274 274 273 275 281 289 293 294 292 291 291 294 294 296 298 298 297 295 295 294 294 296 297 297 297 296 296 294 291 288
247 248 251 251 250 251 251 251 255 257 258 261 263 266 269 272 274 277 283 286 290 289 289 291 290 292 293 293 293 295 294 292 292 292 291 293 294 296 296 296 294 294 293 289
247 249 251 251 251 253 253 254 255 258 261 262 262 263 268 270 273 279 281 284 289 289 288 289 289 290 291 291 290 289 290 289 289 289 289 289 291 292 293 294 294 293 293 292
248 248 250 252 252 253 257 258 257 257 260 262 262 262 265 269 272 277 280 282 285 286 287 289 291 290 290 289 289 288 287 286 285 286 287 289 289 291 292 292 292 292 292 292
248 249 251 253 254 256 258 259 260 260 259 260 260 261 263 264 268 270 274 276 279 283 285 286 288 289 290 288 286 285 285 285 285 286 287 288 289 290 291 291 290 289 290 291
248 249 253 255 257 259 259 261 263 263 260 260 260 263 264 264 266 268 272 275 278 281 284 283 285 287 288 287 284 283 283 284 285 285 287 287 288 289 290 290 289 289 290 292
249 250 252 254 258 260 261 261 261 261 262 262 261 262 265 266 268 269 272 275 277 279 278 278 281 283 284 286 285 283 284 285 285 285 286 287 288 289 289 290 289 288 290 292
251 252 254 254 257 259 260 261 261 263 263 262 262 264 266 267 270 271 272 274 275 276 275 276 279 280 281 282 283 283 283 284 285 285 286 287 289 288 289 290 290 291 290 290
252 253 256 258 260 262 261 260 262 262 263 263 263 264 267 269 272 272 273 275 276 275 274 275 277 280 282 282 280 282 283 284 285 285 285 287 288 288 287 288 289 290 291 290
253 254 256 258 259 260 261 261 262 263 263 263 264 264 266 269 271 273 274 274 275 276 275 276 278 280 282 284 282 282 284 284 284 284 285 287 288 289 288 288 289 290 290 290
254 253 254 256 259 260 261 260 260 261 264 266 268 268 269 272 273 273 275 276 277 277 275 275 276 278 281 283 283 283 283 285 284 284 285 286 288 288 288 289 289 288 288 288
253 255 256 257 259 262 262 262 261 262 263 263 265 267 269 274 277 277 276 277 277 276 276 275 275 277 280 281 283 283 284 284 285 284 283 284 286 286 287 287 288 289 289 289